sat.trackr.live / text

‹ back to catalog

CAS500-2 RIDESHARE OBJE*

NORAD 68999 · 2026-100V

PAYLOAD ACTIVE UNKNOWN

§ Identity

Operator
Country
TBD
Launch date
2026-05-03
Launch site
AFWTR
Launch vehicle
Mass (kg)
RCS (m²)

External: N2YO · Heavens-Above · Gunter

§ Orbital elements

Epoch: 2026-05-25T00:00:02.000160Z

Period
96.53 min
Inclination
97.7365°
Eccentricity
0.0002189
Mean motion
14.91799245 rev/d
Perigee alt
590.8 km
Apogee alt
593.9 km
Semi-major
6,970.5 km
B*
2.9768e-3
RAAN
42.8821°
Arg perigee
181.9528°
Mean anomaly
180.8007°
Rev number
187

§ Raw data

CAS500-2 RIDESHARE OBJE*1 68999U 26100V   26145.00002315  .00030083  00000+0  29768-2 0  99962 68999  97.7365  42.8821 0002189 181.9528 180.8007 14.91799245  1870

JSON: /api/v1/satellites/68999 · /tle

For live sub-satellite position, see the globe view (requires WebGL).

§ Visibility from observer

Set your observer location to see the next 7 days of passes ≥ 10°. The values pass through the URL so the page stays shareable.

No JS? Fill the form by hand. The geolocation button needs JavaScript.